Overview Statistics Trail Chart Weather Telemetry Raw packets
 

This is the latest recevied weather packets stored in our database for station/object KO4ZGL-13. If no packets are shown the sender has not sent any weather packets the latest 10 day(s).

<< 2 3 4 5 6 7 8 >>
Time Temp. Humidity Pressure Rain* Wind** Luminosity Snow
1788629933 35° C 69% 1012.7 hPa 0 mm - 639 W/m² -
1788629629 33.89° C 70% 1012.8 hPa 0 mm - 646 W/m² -
1788629324 34.44° C 69% 1012.7 hPa 0 mm - 643 W/m² -
1788629022 35° C 69% 1012.6 hPa 0 mm - 648 W/m² -
1788628718 34.44° C 71% 1012.5 hPa 0 mm - 650 W/m² -
1788628415 34.44° C 70% 1012.7 hPa 0 mm - 646 W/m² -
1788628111 35° C 70% 1012.8 hPa 0 mm - 383 W/m² -
1788627807 34.44° C 70% 1013.1 hPa 0 mm - 677 W/m² -
1788627506 35° C 71% 1013.1 hPa 0 mm - 672 W/m² -
1788627201 33.89° C 73% 1013.4 hPa 0 mm - 695 W/m² -
1788626901 33.89° C 71% 1013.2 hPa 0 mm - 666 W/m² -
1788626596 33.89° C 71% 1013.3 hPa 0 mm - 675 W/m² -
1788626291 33.33° C 73% 1013.5 hPa 0 mm - 684 W/m² -
1788625987 33.89° C 75% 1013.8 hPa 0 mm - 676 W/m² -
1788625683 33.33° C 75% 1013.7 hPa 0 mm - 656 W/m² -
1788625377 33.33° C 74% 1013.8 hPa 0 mm - 675 W/m² -
1788625071 32.78° C 76% 1013.7 hPa 0 mm - 684 W/m² -
1788624770 33.89° C 74% 1013.9 hPa 0 mm - 204 W/m² -
1788624468 33.33° C 76% 1014 hPa 0 mm - 708 W/m² -
1788624163 32.78° C 76% 1013.9 hPa 0 mm - 701 W/m² -
1788623858 32.78° C 77% 1014.2 hPa 0 mm - 678 W/m² -
1788623557 32.78° C 76% 1014.5 hPa 0 mm - 700 W/m² -
1788623251 32.22° C 77% 1014.4 hPa 0 mm - 638 W/m² -
1788622947 32.78° C 77% 1014.3 hPa 0 mm - 735 W/m² -
1788622637 31.67° C 80% 1014.2 hPa 0 mm - 744 W/m² -

* Rain latest hour (hover to see other rain measurements)
** Current wind speed in m/s (hover to see current wind gust speed)